Regional Weather Roundup
Issued by NWS Midland/Odessa, TX

Skip options and go directly to product.
Home | Oldest Version | Next Version | Current Version | All | Text Only | Save Text | Print | Product List | Glossary On

Skip product version selection by date and time.   
188
ASUS44 KMAF 250602
RWRMAF
MIDLAND AREA WEATHER ROUNDUP
NATIONAL WEATHER SERVICE MIDLAND TX
100 AM CDT SAT OCT 25 2014

...IN SOUTHWEST TEXAS AND SOUTHEAST NEW MEXICO...

CITY           SKY/WX    TMP DP  RH WIND       PRES   REMARKS
ALPINE         CLEAR     61  54  78 S7        30.32S
ANDREWS        FAIR      65  54  66 S10       30.18S
ARTESIA        NOT AVBL
BIG SPRING     CLEAR     64  55  74 SE8       30.19S
CARLSBAD       CLEAR     60  53  77 SW9       30.15F
DRYDEN           N/A     66  62  87 N6        30.15F
FORT STOCKTON  CLEAR     65  58  78 S10       30.18S
GUAD PASS      NOT AVBL
HOBBS          CLEAR     57  48  72 CALM      30.20S
MARFA          CLEAR     52  48  87 CALM      30.31S
MIDLAND AIRPK  CLEAR     69  56  61 S10       30.18S
MIDLAND INTL   CLEAR     67  54  63 S7        30.17S
ODESSA         CLEAR     67  54  63 S9        30.18S
PECOS          CLEAR     62  53  71 CALM      30.15S
PRESIDIO       FAIR      68  52  56 N8        30.16F
SEMINOLE       CLEAR     61  51  68 SW5       30.18S
SNYDER         CLEAR     65  54  67 S8        30.16S
WINK           CLEAR     65  54  67 SE8       30.14S
$$
...OTHER STATIONS IN TEXAS...

CITY           SKY/WX    TMP DP  RH WIND       PRES   REMARKS
ABILENE        CLEAR     71  56  58 S9        30.13S
AMARILLO       CLEAR     56  47  71 SW8       30.15F
AUSTIN         CLEAR     59  57  93 CALM      30.15R
BROWNSVILLE    CLEAR     67  65  93 CALM      30.13F
CORPUS CHRISTI CLEAR     66  62  87 SW3       30.13F
DALLAS FTW     PTCLDY    69  59  70 S8        30.09S
DEL RIO        CLEAR     68  62  81 E6        30.12F
EL PASO        PTCLDY    67  48  50 CALM      30.20S
HOUSTON INT    CLEAR     60  59  96 CALM      30.13F
LUBBOCK        CLEAR     61  50  67 SW8       30.16F
SAN ANGELO     CLEAR     66  57  72 S8        30.15S
SAN ANTONIO    CLEAR     70  57  63 SE3       30.16S
WACO           CLEAR     69  59  70 S12       30.12F
WICHITA FALLS  NOT AVBL
$$
...OTHER LOCATIONS IN NEW MEXICO...

CITY           SKY/WX    TMP DP  RH WIND       PRES   REMARKS
ALAMAGORDO     NOT AVBL
ALBUQUERQUE    CLEAR     60  34  37 E5        30.29S
CANNON AFB     CLEAR     61  47  59 W6        30.20F
CLOVIS         CLEAR     57  43  58 W9        30.23S
HOLLOMAN AFB   PTCLDY    57  46  67 E5        30.21S
ROSWELL        CLEAR     58  53  84 S3        30.17F
RUIDOSO        CLEAR     50  39  66 SW9       30.39F
SANTA FE       CLEAR     46  23  40 NW5       30.33R
TRUTH OR CONSE CLEAR     59  45  59 CALM      30.25S
TUCUMCARI      CLEAR     61  45  55 SW5       30.16R
$$

USA.gov is the U.S. government's official web portal to all federal, state and local government web resources and services.